FW9014 Weather Reports


Display with metric or nautical units.
time (UTC)temp
F
wind
direction
speed
MPH
gust
MPH
rain 1hr
in
rain 24hr
in
rain mn
in
humidity
%
barometer
mb
20260503013051 69 0 0.0 0.0 0.00 0.02 0.01 54 1019.6
20260503011552 70 0 0.0 2.0 0.00 0.02 0.01 54 1019.5
20260503010052 71 0 0.0 2.0 0.00 0.02 0.01 51 1019.4
20260503004551 73 0 0.0 2.0 0.00 0.02 0.01 50 1019.2
20260503003052 73 0 0.0 3.0 0.00 0.02 0.01 48 1019.1
20260503001550 74 70 0.0 4.0 0.00 0.02 0.01 48 1018.8
20260503000046 74 0 1.0 6.0 0.00 0.02 0.01 48 1018.7
20260502234555 74 75 3.0 12.0 0.00 0.02 0.01 46 1018.6
20260502233048 75 49 2.0 12.0 0.00 0.02 0.01 46 1018.6
20260502231546 75 352 2.0 8.0 0.00 0.02 0.01 46 1018.5
20260502230048 75 153 3.0 9.0 0.00 0.02 0.01 47 1018.6
20260502224550 74 55 2.0 10.0 0.00 0.02 0.01 49 1018.6
20260502223046 73 9 7.0 11.0 0.00 0.02 0.01 47 1018.7
20260502221544 73 36 4.0 10.0 0.00 0.02 0.01 48 1018.7
20260502220055 74 26 8.0 13.0 0.00 0.02 0.01 49 1018.6
20260502214555 74 346 3.0 8.0 0.00 0.02 0.01 46 1018.6
20260502213047 73 0 7.0 13.0 0.00 0.02 0.01 45 1018.7
20260502211546 73 56 5.0 14.0 0.00 0.02 0.01 47 1018.9
20260502210106 73 30 12.0 16.0 0.00 0.02 0.01 48 1018.9
20260502204556 74 23 5.0 12.0 0.00 0.02 0.01 46 1019.0
20260502203053 74 5 5.0 12.0 0.00 0.02 0.01 45 1019.1
20260502201548 73 74 7.0 13.0 0.00 0.02 0.01 44 1019.3
20260502200051 73 0 4.0 13.0 0.00 0.02 0.01 48 1019.6
20260502194551 72 31 6.0 14.0 0.00 0.02 0.01 47 1019.8
20260502193056 72 39 3.0 12.0 0.00 0.02 0.01 47 1019.9
20260502191600 71 42 4.0 13.0 0.00 0.02 0.01 49 1019.9
20260502190052 71 25 9.0 16.0 0.00 0.02 0.01 53 1020.1
20260502184559 71 340 8.0 12.0 0.00 0.02 0.01 51 1020.2
20260502183054 70 67 6.0 16.0 0.00 0.02 0.01 57 1020.3
20260502181554 70 26 7.0 16.0 0.00 0.02 0.01 55 1020.4
20260502163054 68 66 3.0 12.0 0.00 0.03 0.01 56 1021.3
20260502161553 67 103 2.0 9.0 0.00 0.03 0.01 64 1021.4
20260502151621 63 360 6.0 12.0 0.00 0.03 0.01 75 1021.5
20260502123051 54 37 7.0 13.0 0.00 0.02 0.00 93 1019.3
20260502121546 53 27 6.0 11.0 0.00 0.02 0.00 93 1019.2
20260502114554 53 16 7.0 13.0 0.00 0.03 0.00 93 1018.7
20260502113051 53 17 3.0 10.0 0.00 0.03 0.00 93 1018.4
20260502111548 53 360 6.0 11.0 0.00 0.03 0.00 93 1018.4
20260502110047 52 28 2.0 8.0 0.00 0.03 0.00 93 1018.3
20260502104545 52 0 0.0 6.0 0.00 0.03 0.00 93 1018.1
20260502103102 53 0 2.0 10.0 0.00 0.03 0.00 93 1018.1
20260502101559 53 0 4.0 10.0 0.00 0.03 0.00 93 1018.1
20260502100113 53 34 3.0 11.0 0.00 0.03 0.00 93 1017.9
20260502070051 53 15 2.0 8.0 0.00 0.04 0.00 94 1016.8
20260502064557 52 0 2.0 5.0 0.00 0.04 0.00 93 1017.0
20260502063052 52 0 0.0 7.0 0.00 0.04 0.00 93 1016.8
20260502061600 53 27 2.0 5.0 0.00 0.04 0.00 93 1017.1
20260502060050 53 26 2.0 7.0 0.00 0.04 0.00 93 1017.2
20260502054548 53 0 0.0 4.0 0.00 0.05 0.00 92 1017.2
20260502053052 53 0 0.0 4.0 0.00 0.05 0.00 92 1017.2
20260502051548 53 72 0.0 4.0 0.00 0.05 0.00 92 1017.3
20260502050045 53 0 1.0 7.0 0.00 0.05 0.00 91 1017.0
20260502044542 53 122 0.0 13.0 0.00 0.07 0.05 91 1017.1
20260502043059 53 64 1.0 9.0 0.00 0.07 0.05 92 1017.1
20260502041553 53 61 2.0 9.0 0.00 0.07 0.05 92 1017.4
20260502040058 54 63 3.0 9.0 0.00 0.07 0.05 93 1017.3
20260502034547 54 27 3.0 10.0 0.00 0.10 0.05 93 1017.3
20260502033048 54 52 3.0 13.0 0.01 0.10 0.05 93 1016.9
20260502031548 54 15 2.0 11.0 0.01 0.10 0.05 94 1016.5
20260502024602 55 11 3.0 10.0 0.01 0.12 0.05 94 1015.8
20260502023045 55 39 4.0 14.0 0.00 0.11 0.04 94 1016.0
20260502021600 55 17 3.0 8.0 0.00 0.11 0.04 94 1015.9
20260502020049 55 49 3.0 14.0 0.00 0.11 0.04 94 1015.5
20260502014549 55 39 3.0 13.0 0.00 0.11 0.04 94 1015.0